Weather in Luxor

Egypt     25°42′22″N   32°37′51″E
temp.,
°C
wind,
m/s
gust,
m/s
humid.,
%
clouds,
%
prec.,
mm/h
press.,
hPa
HPBL,
m
25 february, thu
thu2523:00+13nw44350 0.0 102236
02:00+11nnw23480 0.0 102124
05:00+8nw12590 0.0 102122
08:00+13nw22400 0.0 1022213
11:00+20nnw22240 0.0 1021972
14:00+23nnw34120 0.0 10181700
17:00+23nne34120 0.0 1018128
20:00+16wsw23210 0.0 101927
26 february, fri
fri2623:00+13ne24480 0.0 102025
02:00+12nne23650 0.0 101923
05:00+8n11650 0.0 101923
08:00+15nne11340 0.0 1020149
11:00+22n22190 0.0 1019915
14:00+25n33110 0.0 10151829
17:00+24nne23100 0.0 101554
20:00+17ne23180 0.0 101625
27 february, sat
sat2723:00+13n12550 0.0 101723
02:00+13nw33330 0.0 101524
05:00+10nnw22430 0.0 101523
08:00+16nw12320 0.0 1016185
11:00+23nw66180 0.0 10161485
14:00+25wnw88130 0.0 10122049
17:00+23nw78150 0.0 10131485
20:00+17wnw58260 0.0 101490
28 february, sun
sun2823:00+15nw45330 0.0 101550
02:00+12nw23440 0.0 101426
05:00+10wnw33530 0.0 101527
08:00+15wnw47400 0.0 1016416
11:00+22nw68220 0.0 10161272
14:00+26nnw67120 0.0 10142670
17:00+24nw89140 0.0 1014998
20:00+18nw69200 0.0 1017135
1 march, mon
mon123:00+13nnw23340 0.0 101823
02:00+12nw23420 0.0 101823
05:00+10nw23500 0.0 101924
08:00+15nnw23370 0.0 1020218
11:00+21nnw55230 0.0 10191155
14:00+25nw66170 0.0 10161924
17:00+24nw77200 0.0 10161686
20:00+18nw45330 0.0 101850